Time,TemperatureF,DewpointF,PressureIn,WindDirection,WindDirectionDegrees,WindSpeedMPH,WindSpeedGustMPH,Humidity,HourlyPrecipIn,Conditions,Clouds,dailyrainin,SoftwareType,DateUTC
2013-08-26 12:37:00,66.9,60.2,29.72,NNE,23,0.0,0.0,79,0.00,,,0.00,WUHU216HW,2013-08-26 10:37:00,
2013-08-26 12:38:00,66.9,60.2,29.72,NNE,23,0.0,0.0,79,0.00,,,0.00,WUHU216HW,2013-08-26 10:38:00,
2013-08-26 12:43:00,66.9,60.2,29.73,NE,45,0.0,0.0,79,0.00,,,0.00,WUHU216HW,2013-08-26 10:43:00,
2013-08-26 12:48:00,66.9,60.6,29.73,NNE,23,0.0,0.0,80,0.00,,,0.00,WUHU216HW,2013-08-26 10:48:00,
2013-08-26 12:53:00,66.9,60.6,29.73,ENE,68,0.0,1.1,80,0.00,,,0.00,WUHU216HW,2013-08-26 10:53:00,
2013-08-26 12:58:00,66.9,60.6,29.73,NE,45,0.0,1.1,80,0.00,,,0.00,WUHU216HW,2013-08-26 10:58:00,
2013-08-26 13:03:00,66.7,60.4,29.74,ENE,68,0.0,0.0,80,0.00,,,0.00,WUHU216HW,2013-08-26 11:03:00,
2013-08-26 13:08:00,66.9,60.6,29.75,East,90,2.9,2.9,80,0.00,,,0.00,WUHU216HW,2013-08-26 11:08:00,
2013-08-26 13:13:00,66.9,60.6,29.76,North,0,0.0,2.9,80,0.00,,,0.00,WUHU216HW,2013-08-26 11:13:00,
2013-08-26 13:18:00,67.2,61.3,29.77,East,90,0.0,0.0,81,0.00,,,0.00,WUHU216HW,2013-08-26 11:18:00,
2013-08-26 13:23:00,67.2,61.3,29.77,NE,45,1.1,1.1,81,0.00,,,0.00,WUHU216HW,2013-08-26 11:23:00,
2013-08-26 13:28:00,67.2,61.6,29.77,East,90,0.0,1.1,81,0.00,,,0.00,WUHU216HW,2013-08-26 11:28:00,
2013-08-26 13:33:00,67.6,61.6,29.77,NNE,23,0.0,0.0,81,0.00,,,0.00,WUHU216HW,2013-08-26 11:33:00,
2013-08-26 13:38:00,67.6,61.6,29.76,ENE,68,0.0,0.0,81,0.00,,,0.00,WUHU216HW,2013-08-26 11:38:00,
2013-08-26 13:43:00,67.8,62.1,29.76,ENE,68,0.0,0.0,82,0.00,,,0.00,WUHU216HW,2013-08-26 11:43:00,
2013-08-26 13:48:00,68.1,62.5,29.76,ENE,68,0.0,0.0,82,0.00,,,0.00,WUHU216HW,2013-08-26 11:48:00,
2013-08-26 13:53:00,68.1,62.8,29.77,ESE,113,0.0,0.0,82,0.02,,,0.02,WUHU216HW,2013-08-26 11:53:00,
2013-08-26 13:58:00,68.1,62.8,29.77,East,90,0.0,0.0,83,0.02,,,0.02,WUHU216HW,2013-08-26 11:58:00,
2013-08-26 14:03:00,68.3,62.9,29.77,SE,135,0.0,0.0,83,0.02,,,0.02,WUHU216HW,2013-08-26 12:03:00,
2013-08-26 14:08:00,68.1,63.1,29.77,East,90,0.0,0.0,84,0.02,,,0.02,WUHU216HW,2013-08-26 12:08:00,
2013-08-26 14:13:00,67.8,62.8,29.76,North,0,0.0,0.0,84,0.02,,,0.02,WUHU216HW,2013-08-26 12:13:00,
2013-08-26 14:18:00,67.6,62.6,29.76,NNE,23,0.0,0.0,84,0.02,,,0.02,WUHU216HW,2013-08-26 12:18:00,
2013-08-26 14:23:00,67.1,62.2,29.76,East,90,0.0,0.0,85,0.02,,,0.02,WUHU216HW,2013-08-26 12:23:00,
2013-08-26 14:28:00,66.9,62.2,29.76,South,180,0.0,0.0,85,0.02,,,0.02,WUHU216HW,2013-08-26 12:28:00,
2013-08-26 14:33:00,66.5,61.8,29.76,ESE,113,0.0,0.0,85,0.02,,,0.02,WUHU216HW,2013-08-26 12:33:00,
2013-08-26 14:38:00,66.3,62.0,29.78,SSE,158,0.0,0.0,86,0.02,,,0.02,WUHU216HW,2013-08-26 12:38:00,
2013-08-26 14:43:00,66.3,62.0,29.78,NNE,23,0.0,0.0,86,0.02,,,0.02,WUHU216HW,2013-08-26 12:43:00,
2013-08-26 14:48:00,66.5,62.2,29.78,NW,315,0.0,0.0,86,0.02,,,0.02,WUHU216HW,2013-08-26 12:48:00,
2013-08-26 14:53:00,66.7,62.3,29.79,SSE,158,0.0,0.0,86,0.00,,,0.02,WUHU216HW,2013-08-26 12:53:00,
2013-08-26 14:58:00,66.7,62.3,29.80,SE,135,0.0,0.0,86,0.00,,,0.02,WUHU216HW,2013-08-26 12:58:00,
2013-08-26 15:03:00,66.9,62.5,29.79,ENE,68,0.0,0.0,86,0.00,,,0.02,WUHU216HW,2013-08-26 13:03:00,
2013-08-26 15:08:00,66.9,62.5,29.78,ENE,68,0.0,0.0,86,0.00,,,0.02,WUHU216HW,2013-08-26 13:08:00,
2013-08-26 15:13:00,66.9,62.5,29.78,NW,315,0.0,0.0,86,0.00,,,0.02,WUHU216HW,2013-08-26 13:13:00,
2013-08-26 15:18:00,66.9,62.5,29.77,East,90,0.0,0.0,86,0.00,,,0.02,WUHU216HW,2013-08-26 13:18:00,
2013-08-26 15:23:00,66.9,62.5,29.77,ESE,113,0.0,0.0,86,0.00,,,0.02,WUHU216HW,2013-08-26 13:23:00,
2013-08-26 15:28:00,66.9,62.5,29.77,ESE,113,0.0,0.0,86,0.00,,,0.02,WUHU216HW,2013-08-26 13:28:00,
2013-08-26 15:33:00,66.9,62.5,29.76,North,0,0.0,0.0,86,0.00,,,0.02,WUHU216HW,2013-08-26 13:33:00,
2013-08-26 15:38:00,66.9,62.5,29.76,North,0,0.0,0.0,86,0.00,,,0.02,WUHU216HW,2013-08-26 13:38:00,
2013-08-26 15:43:00,67.1,62.5,29.76,North,0,0.0,0.0,86,0.00,,,0.02,WUHU216HW,2013-08-26 13:43:00,
2013-08-26 15:48:00,67.1,62.7,29.76,ESE,113,0.0,0.0,86,0.00,,,0.02,WUHU216HW,2013-08-26 13:48:00,
2013-08-26 15:55:00,67.1,62.7,29.76,NNE,23,0.0,0.0,86,0.00,,,0.02,WUHU216HW,2013-08-26 13:55:00,
2013-08-26 16:00:00,67.2,62.9,29.76,ESE,113,0.0,0.0,86,0.00,,,0.02,WUHU216HW,2013-08-26 14:00:00,
2013-08-26 16:05:00,67.2,62.9,29.75,NNE,23,0.0,0.0,86,0.00,,,0.02,WUHU216HW,2013-08-26 14:05:00,
2013-08-26 16:10:00,67.2,62.9,29.76,NNE,23,0.0,0.0,86,0.00,,,0.02,WUHU216HW,2013-08-26 14:10:00,
2013-08-26 16:15:00,67.1,62.7,29.75,North,0,0.0,0.0,86,0.00,,,0.02,WUHU216HW,2013-08-26 14:15:00,
2013-08-26 16:20:00,67.1,62.4,29.76,NE,45,0.0,0.0,85,0.00,,,0.02,WUHU216HW,2013-08-26 14:20:00,
2013-08-26 16:25:00,67.1,62.4,29.76,East,90,0.0,0.0,85,0.00,,,0.02,WUHU216HW,2013-08-26 14:25:00,
2013-08-26 16:30:00,66.9,62.2,29.76,NE,45,0.0,0.0,85,0.00,,,0.02,WUHU216HW,2013-08-26 14:30:00,
2013-08-26 16:35:00,66.9,62.0,29.77,NNW,338,0.0,0.0,85,0.00,,,0.02,WUHU216HW,2013-08-26 14:35:00,
2013-08-26 16:40:00,66.7,62.0,29.77,NNE,23,0.0,0.0,85,0.00,,,0.02,WUHU216HW,2013-08-26 14:40:00,
2013-08-26 16:47:00,66.5,61.8,29.78,North,0,2.4,2.4,85,0.00,,,0.02,WUHU216HW,2013-08-26 14:47:00,
2013-08-26 16:52:00,66.5,61.8,29.78,NNW,338,0.0,2.4,85,0.00,,,0.02,WUHU216HW,2013-08-26 14:52:00,
2013-08-26 16:57:00,66.5,61.8,29.79,NNW,338,0.0,0.0,85,0.00,,,0.02,WUHU216HW,2013-08-26 14:57:00,
2013-08-26 17:02:00,66.3,61.7,29.79,North,0,0.0,0.0,85,0.00,,,0.02,WUHU216HW,2013-08-26 15:02:00,
2013-08-26 17:07:00,66.0,61.8,29.79,North,0,0.0,0.0,86,0.00,,,0.02,WUHU216HW,2013-08-26 15:07:00,
2013-08-26 17:12:00,66.0,61.6,29.79,NNE,23,0.0,0.0,86,0.00,,,0.02,WUHU216HW,2013-08-26 15:12:00,
2013-08-26 17:17:00,66.0,61.6,29.79,NE,45,0.0,0.0,86,0.00,,,0.02,WUHU216HW,2013-08-26 15:17:00,
2013-08-26 17:22:00,66.0,61.6,29.80,NW,315,0.0,0.0,86,0.00,,,0.02,WUHU216HW,2013-08-26 15:22:00,
2013-08-26 17:27:00,66.0,61.6,29.80,NE,45,0.0,0.0,86,0.02,,,0.04,WUHU216HW,2013-08-26 15:27:00,
2013-08-26 17:32:00,65.4,61.4,29.81,ENE,68,0.0,0.0,87,0.02,,,0.04,WUHU216HW,2013-08-26 15:32:00,
2013-08-26 17:37:00,65.1,61.1,29.80,ENE,68,1.1,1.1,87,0.02,,,0.04,WUHU216HW,2013-08-26 15:37:00,
2013-08-26 17:42:00,64.9,60.9,29.80,ENE,68,0.0,1.1,87,0.10,,,0.08,WUHU216HW,2013-08-26 15:42:00,
2013-08-26 17:47:00,64.5,60.6,29.80,NE,45,0.0,1.1,87,0.12,,,0.14,WUHU216HW,2013-08-26 15:47:00,
2013-08-26 17:52:00,64.2,60.6,29.81,North,0,0.0,1.1,88,0.14,,,0.14,WUHU216HW,2013-08-26 15:52:00,
2013-08-26 17:57:00,64.2,60.6,29.81,NNW,338,0.0,0.0,88,0.14,,,0.17,WUHU216HW,2013-08-26 15:57:00,
2013-08-26 18:02:00,64.0,60.4,29.82,NW,315,0.0,0.0,88,0.14,,,0.17,WUHU216HW,2013-08-26 16:02:00,
2013-08-26 18:07:00,63.6,60.1,29.82,NNW,338,0.0,2.9,88,0.20,,,0.21,WUHU216HW,2013-08-26 16:07:00,
2013-08-26 18:12:00,63.6,60.1,29.82,North,0,0.0,2.9,88,0.22,,,0.25,WUHU216HW,2013-08-26 16:12:00,
2013-08-26 18:17:00,63.6,60.4,29.82,NE,45,0.0,0.0,89,0.26,,,0.29,WUHU216HW,2013-08-26 16:17:00,
2013-08-26 18:22:00,63.5,60.2,29.81,NW,315,0.0,0.0,89,0.24,,,0.29,WUHU216HW,2013-08-26 16:22:00,
2013-08-26 18:27:00,63.5,60.2,29.82,NW,315,0.0,1.5,89,0.26,,,0.29,WUHU216HW,2013-08-26 16:27:00,
2013-08-26 18:32:00,63.5,60.2,29.82,NNW,338,0.0,1.5,89,0.26,,,0.31,WUHU216HW,2013-08-26 16:32:00,
2013-08-26 18:37:00,63.3,60.0,29.82,West,270,0.0,0.0,89,0.22,,,0.31,WUHU216HW,2013-08-26 16:37:00,
2013-08-26 18:42:00,63.3,60.0,29.82,ENE,68,0.0,0.0,89,0.18,,,0.31,WUHU216HW,2013-08-26 16:42:00,
2013-08-26 18:47:00,63.3,60.0,29.82,ENE,68,0.0,0.0,89,0.16,,,0.31,WUHU216HW,2013-08-26 16:47:00,
2013-08-26 18:52:00,63.3,60.0,29.82,East,90,0.0,0.0,89,0.14,,,0.31,WUHU216HW,2013-08-26 16:52:00,
2013-08-26 18:57:00,63.3,60.0,29.82,North,0,0.0,0.0,89,0.14,,,0.31,WUHU216HW,2013-08-26 16:57:00,
2013-08-26 19:02:00,63.3,60.2,29.82,North,0,0.0,0.0,89,0.12,,,0.31,WUHU216HW,2013-08-26 17:02:00,
2013-08-26 19:07:00,63.5,60.2,29.82,North,0,0.0,0.0,89,0.08,,,0.31,WUHU216HW,2013-08-26 17:07:00,
2013-08-26 19:12:00,63.5,60.2,29.82,North,0,0.0,0.0,89,0.06,,,0.31,WUHU216HW,2013-08-26 17:12:00,
2013-08-26 19:17:00,63.5,60.2,29.82,North,0,0.0,0.0,89,0.02,,,0.31,WUHU216HW,2013-08-26 17:17:00,
2013-08-26 19:23:00,63.6,60.4,29.82,West,270,0.0,0.0,89,0.02,,,0.31,WUHU216HW,2013-08-26 17:23:00,
2013-08-26 19:28:00,63.5,60.2,29.82,WNW,293,0.0,0.0,89,0.00,,,0.31,WUHU216HW,2013-08-26 17:28:00,
2013-08-26 19:33:00,63.5,60.2,29.82,NNE,23,0.0,0.0,89,0.00,,,0.31,WUHU216HW,2013-08-26 17:33:00,
2013-08-26 19:38:00,63.5,60.2,29.81,North,0,0.0,0.0,89,0.00,,,0.31,WUHU216HW,2013-08-26 17:38:00,
2013-08-26 19:43:00,63.1,60.2,29.82,NNW,338,0.0,0.0,90,0.00,,,0.31,WUHU216HW,2013-08-26 17:43:00,
2013-08-26 19:48:00,63.1,60.2,29.81,NNE,23,0.0,0.0,90,0.00,,,0.31,WUHU216HW,2013-08-26 17:48:00,
2013-08-26 19:53:00,62.7,59.9,29.82,NNE,23,0.0,0.0,90,0.00,,,0.31,WUHU216HW,2013-08-26 17:53:00,
2013-08-26 19:58:00,62.4,59.5,29.82,North,0,0.0,0.0,90,0.00,,,0.31,WUHU216HW,2013-08-26 17:58:00,
2013-08-26 20:03:00,62.4,59.3,29.82,NW,315,0.0,0.0,90,0.00,,,0.31,WUHU216HW,2013-08-26 18:03:00,
2013-08-26 20:08:00,62.0,59.1,29.83,NW,315,0.0,0.0,90,0.00,,,0.31,WUHU216HW,2013-08-26 18:08:00,
2013-08-26 20:13:00,61.8,59.0,29.83,North,0,0.0,0.0,90,0.00,,,0.31,WUHU216HW,2013-08-26 18:13:00,
2013-08-26 20:18:00,61.5,58.6,29.83,North,0,0.0,0.0,90,0.00,,,0.31,WUHU216HW,2013-08-26 18:18:00,
2013-08-26 20:23:00,61.5,58.6,29.83,NW,315,0.0,0.0,90,0.00,,,0.31,WUHU216HW,2013-08-26 18:23:00,
2013-08-26 20:28:00,61.3,58.4,29.83,SW,225,0.0,0.0,90,0.00,,,0.31,WUHU216HW,2013-08-26 18:28:00,
2013-08-26 20:33:00,60.9,58.1,29.83,SW,225,0.0,0.0,90,0.00,,,0.31,WUHU216HW,2013-08-26 18:33:00,
2013-08-26 20:38:00,60.8,57.9,29.83,NW,315,0.0,0.0,90,0.00,,,0.31,WUHU216HW,2013-08-26 18:38:00,
2013-08-26 20:43:00,60.6,57.7,29.83,WNW,293,0.0,0.0,90,0.00,,,0.31,WUHU216HW,2013-08-26 18:43:00,
2013-08-26 20:48:00,60.4,57.5,29.84,WNW,293,0.0,0.0,90,0.00,,,0.31,WUHU216HW,2013-08-26 18:48:00,
2013-08-26 20:53:00,60.4,57.5,29.83,NW,315,0.0,0.0,90,0.00,,,0.31,WUHU216HW,2013-08-26 18:53:00,
2013-08-26 20:58:00,60.4,57.3,29.84,NNW,338,0.0,0.0,90,0.00,,,0.31,WUHU216HW,2013-08-26 18:58:00,
2013-08-26 21:03:00,60.2,57.3,29.84,NW,315,0.0,0.0,90,0.00,,,0.31,WUHU216HW,2013-08-26 19:03:00,
2013-08-26 21:08:00,60.2,57.3,29.84,NW,315,0.0,0.0,90,0.00,,,0.31,WUHU216HW,2013-08-26 19:08:00,
2013-08-26 21:13:00,60.4,57.5,29.84,West,270,0.0,0.0,90,0.00,,,0.31,WUHU216HW,2013-08-26 19:13:00,
2013-08-26 21:18:00,60.4,57.5,29.84,West,270,0.0,0.0,90,0.00,,,0.31,WUHU216HW,2013-08-26 19:18:00,
2013-08-26 21:23:00,60.2,57.3,29.84,West,270,0.0,0.0,90,0.00,,,0.31,WUHU216HW,2013-08-26 19:23:00,
2013-08-26 21:28:00,60.0,57.2,29.84,WNW,293,0.0,0.0,90,0.00,,,0.31,WUHU216HW,2013-08-26 19:28:00,
2013-08-26 21:33:00,60.0,57.2,29.83,WNW,293,0.0,0.0,90,0.00,,,0.31,WUHU216HW,2013-08-26 19:33:00,
2013-08-26 21:38:00,60.0,57.2,29.82,NW,315,0.0,0.0,90,0.00,,,0.31,WUHU216HW,2013-08-26 19:38:00,
2013-08-26 21:43:00,60.0,57.2,29.81,WNW,293,0.0,0.0,90,0.00,,,0.31,WUHU216HW,2013-08-26 19:43:00,
2013-08-26 21:48:00,60.0,57.2,29.81,SE,135,0.0,0.0,90,0.00,,,0.31,WUHU216HW,2013-08-26 19:48:00,
2013-08-26 21:53:00,60.0,57.2,29.81,SE,135,0.0,0.0,90,0.00,,,0.31,WUHU216HW,2013-08-26 19:53:00,
2013-08-26 21:58:00,60.0,57.2,29.81,SE,135,0.0,0.0,90,0.00,,,0.31,WUHU216HW,2013-08-26 19:58:00,
2013-08-26 22:03:00,60.0,57.2,29.81,SSE,158,0.0,0.0,90,0.00,,,0.31,WUHU216HW,2013-08-26 20:03:00,
2013-08-26 22:08:00,60.2,57.3,29.81,SSE,158,0.0,0.0,90,0.00,,,0.31,WUHU216HW,2013-08-26 20:08:00,
2013-08-26 22:13:00,60.0,57.2,29.80,NNW,338,0.0,0.0,90,0.00,,,0.31,WUHU216HW,2013-08-26 20:13:00,
2013-08-26 22:18:00,60.0,57.2,29.80,NW,315,0.0,0.0,90,0.00,,,0.31,WUHU216HW,2013-08-26 20:18:00,
2013-08-26 22:23:00,60.0,57.2,29.80,NW,315,0.0,0.0,90,0.00,,,0.31,WUHU216HW,2013-08-26 20:23:00,
2013-08-26 22:28:00,59.9,57.0,29.79,North,0,0.0,0.0,90,0.00,,,0.31,WUHU216HW,2013-08-26 20:28:00,
2013-08-26 22:33:00,59.9,57.0,29.79,NNW,338,0.0,0.0,90,0.00,,,0.31,WUHU216HW,2013-08-26 20:33:00,
2013-08-26 22:38:00,60.0,57.2,29.80,North,0,0.0,0.0,90,0.00,,,0.31,WUHU216HW,2013-08-26 20:38:00,
2013-08-26 22:44:00,60.0,57.2,29.81,North,0,0.0,0.0,90,0.00,,,0.31,WUHU216HW,2013-08-26 20:44:00,
2013-08-26 22:50:00,60.0,57.2,29.82,North,0,0.0,0.0,90,0.00,,,0.31,WUHU216HW,2013-08-26 20:50:00,
2013-08-26 22:54:00,60.4,57.5,29.82,North,0,0.0,2.0,90,0.00,,,0.31,WUHU216HW,2013-08-26 20:54:00,
2013-08-26 22:59:00,60.4,57.5,29.83,North,0,0.0,2.0,90,0.00,,,0.31,WUHU216HW,2013-08-26 20:59:00,
2013-08-26 23:05:00,60.6,57.7,29.83,North,0,4.6,4.6,90,0.00,,,0.31,WUHU216HW,2013-08-26 21:05:00,